Location: Cahas Mountain Overlook
(37.0833°N, 80.1000°W)
Time: 06:45:17
(UTC-04:00)

Explorer 7 - Pass Details

Date: 08 February 2026
Orbit: 430 x 540 km, 50.2° (Epoch: 14 March)

Event Time Altitude Azimuth Distance (km) Brightness Sun altitude
Rises 01:42:43 0° 306° (NW) 2,679 - -63.2°
Reaches altitude 10° 01:44:56 10° 304° (NW) 1,797 - -62.9°
Maximum altitude 01:49:02 72° 221° (SW) 574 - -62.4°
Drops below altitude 10° 01:53:09 10° 137° (SE) 1,809 - -61.8°
Sets 01:55:24 0° 135° (SE) 2,697 - -61.5°
